Regional Weather Roundup
Issued by NWS

Home | Current Version | Previous Version | Graphics & Text | Print | Product List | Glossary On
Versions: 1 2 3 4 5 6 7 8 9 10 11 12 13 14 15 16 17 18 19 20 21 22 23 24 25 26 27 28 29 30 31 32 33 34 35 36 37 38 39 40 41 42 43 44 45 46 47 48 49 50
000
ASUS43 KIND 030209
RWRIN

WEATHER ROUNDUP FOR INDIANA
NATIONAL WEATHER SERVICE INDIANAPOLIS IN
900 PM EST MON MAR 02 2015

NOTE: "FAIR" INDICATES FEW OR NO CLOUDS BELOW 12,000 FEET WITH NO
SIGNIFICANT WEATHER AND/OR OBSTRUCTIONS TO VISIBILITY.

* - STATION DOES NOT REPORT WEATHER SUCH AS PRECIPITATION OR FOG.

+ - STATION NOT QUALITY CONTROLLED BY THE NATIONAL WEATHER SERVICE.
    USE DATA WITH CAUTION...ESPECIALLY DEWPOINT AND RELATIVE
    HUMIDITY OBSERVATIONS.

INZ001>003-010>013-019-020-030300-
NORTHWEST INDIANA

CITY           SKY/WX    TMP DP  RH WIND       PRES   REMARKS
GARY /AIRPORT/ MOCLDY    28  12  50 SE7       30.37  WCI  21
KNOX *+          N/A     27   5  39 S5        30.37S WCI  21
LA PORTE +     MOCLDY    27  15  60 S5        30.37S WCI  22
MICHIGAN CITY+ MOCLDY    28  10  47 S6        30.37F WCI  22
MONTICELLO +   PTCLDY    24  16  69 CALM      30.38S
RENSSELAER +   CLOUDY    27  21  80 CALM      30.38F
VALPARAISO     CLOUDY    24  15  68 S7        30.37S WCI  16

$$

LMZ046-743>745-030300-
SOUTHERN LAKE MICHIGAN

STATION/POSITION TIME  TEMP WIND        PRES
                       AIR  DIR/SP/G
                 (UTC) (F)  (DEG/KT/KT) (MB)
MICHIGAN CITY    0200   27  150/  7/  9   N/A

$$

INZ004-005-014>016-021>024-030300-
NORTH CENTRAL INDIANA

CITY           SKY/WX    TMP DP  RH WIND       PRES   REMARKS
ELKHART        MOCLDY    27  12  54 S5        30.37F WCI  21
GOSHEN         MOCLDY    25  15  66 S5        30.36F WCI  19
LOGANSPORT +   MOCLDY    21  16  79 S5        30.38F WCI  15
PERU/GRISSOM   CLOUDY    22  14  72 SE6       30.36F WCI  14
ROCHESTER +    PTCLDY    27  16  63 CALM      30.37F
SOUTH BEND     MOCLDY    27  14  58 S7        30.36F WCI  19
WARSAW +       MOCLDY    27  14  59 CALM      30.36F

$$

INZ006>009-017-018-025>027-030300-
NORTHEAST INDIANA

CITY           SKY/WX    TMP DP  RH WIND       PRES   REMARKS
ANGOLA *+      CLEAR     19  14  79 CALM      30.35F
AUBURN +       MOCLDY    27  14  59 CALM      30.38F
FORT WAYNE     MOCLDY    20  13  74 S7        30.39F WCI  11
HUNTINGTON +   PTCLDY    22  10  59 S3        30.38F

$$

INZ028-029-035-036-043>045-051>053-030300-
WEST CENTRAL INDIANA

CITY           SKY/WX    TMP DP  RH WIND       PRES   REMARKS
CRAWFORDSVL +  MOCLDY    23  11  59 E6        30.36S WCI  16
GREENCASTLE +  MOCLDY    27  14  59 E5        30.37R WCI  21
LAFAYETTE      MOCLDY    24  15  68 CALM      30.39R
TERRE HAUTE    MOCLDY    28  16  60 E6        30.37S WCI  22

$$

INZ030>032-037>040-046>048-054>057-064-065-030300-
CENTRAL INDIANA

CITY           SKY/WX    TMP DP  RH WIND       PRES   REMARKS
CP ATTERBURY + MOCLDY    27  18  69 CALM      30.38F
COLUMBUS       CLEAR     23  16  74 NE3       30.39F
FRANKFORT +    PTCLDY    17  12  80 E5        30.39R WCI  10
GREENWOOD *+   MOCLDY    27  12  54 E5        30.37F WCI  21
INDIANAPOLIS   CLOUDY    27  15  61 E5        30.36F WCI  22
-EAGLE CREEK   MOCLDY    27  15  61 E3        30.36F
KOKOMO *+      PTCLDY    21  14  73 SE5       30.38F WCI  15
MARION +       PTCLDY    22  12  66 SE5       30.39F WCI  15
MT COMFORT *+  MOCLDY    23   9  54 CALM      30.38
SHELBYVILLE    MOCLDY    26  15  63 E9        30.37F WCI  17
ZIONSVILLE +   MOCLDY    26  13  59 SE3       30.37S

$$

INZ033-034-041-042-049-050-058-059-030300-
EAST CENTRAL INDIANA

CITY           SKY/WX    TMP DP  RH WIND       PRES   REMARKS
MUNCIE         MOCLDY    24  14  65 SE7       30.37F WCI  16

$$

INZ060-061-067>069-081>083-085>088-030300-
SOUTHWEST INDIANA

CITY           SKY/WX    TMP DP  RH WIND       PRES   REMARKS
EVANSVILLE     PTCLDY    32  22  66 N5        30.36F WCI  27
HUNTINGBURG *+ MOCLDY    32  16  51 NE3       30.36S
WASHINGTON +   MOCLDY    27  20  72 N3        30.36R

$$

INZ062-063-066-070>080-084-089>092-030300-
SOUTH CENTRAL AND SOUTHEAST INDIANA

CITY           SKY/WX    TMP DP  RH WIND       PRES   REMARKS
BLOOMINGTON    MOCLDY    30  14  51 E8        30.35F WCI  22
NORTH VERNON + MOCLDY    30  16  55 E6        30.37F WCI  24
SEYMOUR +      CLOUDY    28  19  69 NE7       30.37F WCI  21

$$




USA.gov is the U.S. government's official web portal to all federal, state and local government web resources and services.